GFSWCAN_prec_radar_198.txt.gz
Reflectivity
-20 -20 -20 -20 -6 19 25 21 18 12 8 8 10 3 -6 -11 -16 -20 -20 -4 8 12 12 10 6 -2 -20 -19 -20 -20 -20 -20 -20 -20 -20 -20 -20 -20 -20 -20 -20 -20 -13 -20 -20 -8 8 6 -20 -3 -20 -20 -20 -14
-20 -20 -20 -20 -20 -20 -20 -17 -7 -6 -9 -20 -15 4 4 6 8 5 0 -6 -19 -19 -19 -20 -20 -20 -20 -20 -20 -20 -20 -20 -20 -20 -20 -20 -20 -20 -20 -20 -20 -20 -19 10 20 8 20 8 4 2 -20 -20 -20 -20
-20 -20 -20 -20 -20 -20 -20 -20 -20 -20 -20 -20 -20 -20 -20 -14 -11 -10 -15 -10 -20 -20 -20 -20 -20 -20 -20 -20 -20 -20 -20 -20 -20 -20 -20 -20 -20 -20 -20 -20 -20 -20 -20 -20 -20 -20 -20 0 3 1 -20 -20 -20 -20
-20 -20 -20 -20 -20 -20 -20 -20 -20 -20 -20 -20 -20 -20 -20 -20 -20 -20 -20 -20 -20 -20 -20 -20 -20 -20 -20 -20 -20 -20 -20 -20 -20 -20 -20 -20 -20 -20 -20 -20 -20 -20 -20 -20 -20 -20 -20 -20 -20 -20 -20 -20 -20 -20
-20 -20 -20 -20 -20 -20 -20 -20 -20 -20 -20 -20 -20 -20 -20 -20 -20 -20 -20 -20 -20 -20 -20 -20 -20 -20 -20 -20 -20 -20 -20 -20 -20 -20 -20 -20 -20 -20 -20 -20 -20 -20 -20 -20 -20 -20 -20 -20 -20 -20 -20 -20 -20 -20
-20 -20 -20 -20 -20 -20 -20 -20 -20 -20 -20 -20 -20 -20 -20 -20 -20 -20 -20 -20 -20 -20 -20 -20 -20 -20 -20 -20 -20 -20 -20 -20 -20 -20 -20 -20 -20 -20 -20 -20 -20 -20 -20 -20 -20 -20 -20 -20 -20 -20 -20 -20 -20 -20
-20 -20 -20 -20 -20 -20 -20 -20 -20 -20 -20 -20 -20 -20 -20 -20 -20 -20 -20 -20 -20 -20 -20 -20 -20 -20 -20 -20 -20 -20 -20 -20 -20 -20 -20 -20 -20 -2 -20 -20 -20 -20 -20 -20 -20 -20 -20 -20 -20 -20 -20 -20 -20 -20
-20 -20 -20 -20 -20 -20 -20 -20 -20 -20 -20 -20 -20 -20 -20 -20 -20 -20 -20 -20 -20 -20 -20 -20 -20 -20 -20 -20 -20 -20 -20 -20 -20 -20 -20 -20 -20 -20 -17 -20 -20 -20 -20 -20 -20 -20 -20 -20 -20 -20 -20 -20 -20 -20
-20 -20 -20 -20 -20 -20 -20 -20 -20 -20 -20 -20 -20 -20 -20 -20 -20 -20 -20 -20 -20 -20 -20 -20 -20 -20 -20 -20 -20 -20 -20 -20 -20 -20 -20 -20 -20 -18 -20 -20 -20 -20 -20 -20 -20 -20 -20 -20 -20 -20 -20 -20 -20 -20
-20 -20 -20 -20 -20 -20 -20 -20 -20 -20 -20 -20 -20 -20 -20 -20 -20 -20 -20 -20 -20 -20 -20 -20 -20 -20 -20 -20 -20 -20 -20 -20 -20 -20 -20 -20 -20 -20 -20 -20 -20 -20 -20 -20 -20 -20 -20 -20 -20 -20 -20 -20 -20 -20
-20 -20 -20 -20 -20 -20 -20 -20 -20 -20 -20 -20 -7 -19 -20 -20 -20 -20 -20 -20 -20 -20 -20 -20 -20 -20 -20 -20 -20 -20 -20 -20 -12 -20 -20 -7 -20 -15 18 -14 -20 -20 -20 -20 -20 -20 -12 -12 -20 -20 -20 -13 -1 -20
-20 -20 -20 -20 -20 -20 -20 -20 -20 -20 -20 -20 -20 -20 -20 -20 -20 -20 -20 -20 -20 -16 -20 -20 -3 17 -20 -20 -20 -20 -20 -20 -18 -20 -15 -16 -20 7 -16 -20 -20 -20 -20 -20 -20 -20 -20 -20 -20 -19 -7 -20 -20 -20
-20 -20 -20 -20 -20 -20 -20 -20 -20 -20 -20 -20 -20 -20 -20 -20 -20 -20 -20 -20 -20 -20 -20 -20 -16 4 -20 -20 -20 -20 -20 -20 -19 -20 -20 -20 -20 -15 24 -19 -20 -20 -20 -20 -20 -20 -20 -20 -20 -20 -20 -20 -20 -20
-20 -20 -20 -20 -20 -20 -20 -20 -20 -20 -20 -20 -20 -20 -20 -20 -20 -20 -18 -20 -20 -20 -20 -20 -20 -20 -20 -18 -20 -20 -20 -20 -20 -20 -20 -20 11 35 -9 -20 -20 -20 -20 -20 -20 -20 -20 -20 -20 -20 -2 -20 -17 -20
-20 -20 -20 -20 -20 -20 -20 -20 -20 -20 -20 -20 -7 -20 -20 -20 -20 -20 -18 -20 -20 -20 -20 -20 -20 -14 -10 -6 -20 -18 -20 -20 -20 -19 -1 20 25 29 13 -20 -20 -20 -19 -20 -20 -20 -20 -18 -20 -20 -20 -20 -19 -20
-20 -20 -20 -20 -20 3 -1 -20 -20 -20 -20 -20 -20 -20 -20 -20 -20 -20 -20 -20 -20 -20 -20 -20 -20 -17 -20 -20 7 -20 -3 -20 -19 -8 -4 -18 -20 -12 -20 -20 -20 -7 -20 -20 -20 -20 -20 -20 -20 -20 -20 -20 -20 -20
-20 -20 -20 -20 16 8 -20 -20 -20 -20 -20 -20 -20 -20 -20 -20 -20 -20 -20 -20 -20 -20 -20 -19 -20 -20 -20 7 11 17 23 20 11 14 18 -2 -20 -20 -20 -20 -20 -10 -20 -20 -20 -20 -20 -20 -20 -20 -20 -20 -20 -20
-20 -20 -20 -16 -7 -5 -20 -20 -14 -20 -7 -20 -20 -20 -20 -20 -20 -20 -20 -20 -20 -20 -20 -19 -20 -20 -20 2 -20 -19 -20 -10 -20 -20 -20 -20 -20 -20 -20 -20 -20 -20 -20 -20 -20 -20 -20 -20 -20 -20 -20 -20 -20 -20
-10 -5 -19 6 -0 20 -1 4 -17 -20 -20 -20 -20 -20 -20 -20 -20 -20 -20 -20 -20 7 -19 -16 -20 -20 -20 -20 -18 -20 -20 -20 -19 -20 -8 -19 -20 -20 -20 -20 -20 -20 -20 -20 -20 -20 -20 -18 -20 -20 -20 -20 -20 -20
-12 -10 18 10 25 28 20 14 2 -20 -20 -20 -20 -20 -20 -20 -20 -20 -20 -20 -20 -13 -13 -19 -20 -20 -20 -20 -20 -20 -20 -20 -20 -20 -20 -20 -20 -20 -20 -20 -20 -20 -20 -20 -20 -20 -20 -20 -20 -20 -20 -20 -20 -20
-20 -20 -20 2 39 25 13 20 16 -20 -20 -20 -20 -20 -20 -20 -20 -20 21 -2 3 -20 -20 -20 -20 -20 -20 -20 -20 -20 -20 -20 -20 -20 -20 -20 -20 -20 -20 -20 -20 -20 -20 -20 -20 -20 -20 -20 -20 -20 -20 -20 -20 -20
-20 11 -19 -1 -17 20 22 -13 -20 -10 -4 -20 -20 -20 -20 -20 -20 -20 -19 -16 -20 -20 -20 -20 -20 -20 -20 -9 -20 -20 -20 -20 -20 -20 -20 -20 -20 -20 -19 -20 -20 -20 -20 -20 -20 -20 -20 -20 -20 -20 -20 -20 -20 -20
-13 -8 -2 21 5 4 -2 12 16 -13 8 -6 -8 -4 -20 -20 -20 -20 11 -20 -20 -20 -20 -20 -20 -20 -12 -19 -16 -20 -20 -20 -20 -20 -20 -20 -20 -20 -20 -20 -20 -20 -20 -20 -20 -20 -20 -20 -20 -20 -20 -20 -20 -20
-5 8 -20 -15 -18 -20 13 -2 -13 9 -20 -20 -20 -18 -20 -20 -14 13 1 -20 -20 -20 -19 -20 -20 10 -8 -20 -20 -20 -20 -20 -20 -20 -20 -20 -20 -20 -20 -20 -20 -20 -20 -20 -20 -20 -20 -20 -20 -20 -20 -20 -20 -20
15 22 -1 -19 -9 18 -16 -18 6 14 9 20 25 16 13 18 14 6 20 13 19 19 14 3 -2 4 -20 -20 -20 -20 -20 -20 -20 -20 -20 -20 -20 -20 -20 -20 -20 -19 -10 -20 -20 -20 -20 -20 -20 -20 -20 -20 -20 -20
-20 -20 10 8 -4 -17 5 9 -9 -8 4 -12 17 14 2 16 2 22 17 16 6 10 17 16 11 4 -8 -15 -20 -20 -20 -20 -20 -20 -20 -20 -20 -20 -20 -18 -20 -20 -20 -20 -20 -20 -20 -20 -20 -10 -20 -20 -20 -20
-20 -20 -20 -20 -18 2 -19 -12 0 9 14 3 -10 -0 -14 9 10 13 14 14 13 15 17 19 15 13 10 1 -20 -20 -20 -20 -20 -20 -20 -17 -11 -10 -6 10 -12 -16 -20 -20 -20 -20 -20 -20 -20 -20 -20 -20 -20 -20
-20 -14 -20 -20 -20 -20 -20 -14 -19 -20 -20 6 8 0 7 2 -13 -1 14 20 18 15 13 14 16 17 14 10 -2 -20 -20 -20 -20 -20 -20 -20 -20 -18 -19 -19 -20 -20 -20 -20 -20 -20 -20 -20 -20 -14 11 -7 -20 -20
-20 -20 -20 -20 -20 -20 -15 -6 -16 -17 -3 -20 -20 -20 -20 -16 5 2 2 -2 -12 4 10 9 10 11 8 -3 -19 -20 -20 -20 -20 -20 -20 -20 -20 -20 -20 -20 -20 -20 -20 -20 -20 -4 -20 -20 -20 -20 -20 -20 -2 -12
-20 -20 -20 -20 -20 -20 -20 -14 -20 -20 -20 -20 -20 -20 -4 -17 -10 -9 -2 -1 -4 -14 -20 -20 -20 -20 -20 -20 -20 -20 -20 -20 -20 -20 -20 -20 -20 -20 -20 -20 -20 -20 -20 -20 -20 -20 -20 -20 -20 -20 -20 -20 -8 0
-5 -20 -20 -13 -19 -20 -20 -20 -20 -20 -20 -20 -20 -13 -14 -16 1 -20 -20 -20 -20 -20 -20 -20 -20 -20 -20 -20 -20 -20 -20 -20 -20 -20 -20 -20 -20 -20 -20 -20 -20 -20 -20 -20 -20 -20 -20 -20 -20 -20 -12 -20 -10 -20
-20 -20 -20 -20 -20 -20 -20 -20 -20 -20 -20 -20 -20 7 2 -2 -20 -20 -20 -20 -20 -20 -20 -20 -20 -20 -20 -20 -20 -20 -20 -20 -20 -20 -20 -20 -20 -20 -20 -20 -20 -20 -20 -20 -20 -20 -20 -20 -20 -20 -20 -14 -11 -20
-20 -20 -20 -20 -20 -20 -20 -20 -20 -20 -20 -20 -20 2 9 -2 -14 -20 -19 -20 -20 -20 -20 -20 -20 -20 -20 -20 -20 -20 -20 -16 -18 -20 -20 -20 -20 -20 -20 -20 -20 -20 -20 -20 -20 -20 -20 -20 -20 -20 -4 7 0 -18

GFSWCAN_prec_radar_201.txt.gz
Reflectivity
-20 -14 -9 -13 3 7 6 13 20 28 29 22 19 24 21 21 17 13 -3 -2 -20 -1 10 19 20 15 -2 -10 2 5 -3 -5 -13 -19 -20 -20 -20 -20 -20 -20 -20 -20 -20 -20 -20 -20 -10 -20 -20 -20 -20 -20 -20 -20
-20 -20 -19 -5 -20 -20 -17 -10 1 3 6 14 14 5 3 6 6 0 1 -6 -0 5 9 12 13 -0 -5 -1 -13 -19 -20 -19 -20 -20 -20 -20 -20 -20 -20 -20 -20 -20 -20 -20 -20 -20 -20 -20 -20 -20 -8 -20 -20 -20
-20 -20 -20 -20 -11 -3 -19 -20 -20 -20 -17 -9 -5 -6 -8 -18 -1 -9 3 0 -4 -20 -14 -7 -15 -16 -19 -20 -20 -20 -20 -20 -20 -20 -20 -20 -20 -20 -20 -20 -20 -20 -20 -20 -20 -20 -20 -20 -20 -20 -20 3 -20 -20
-20 -20 -20 -20 -20 -20 -20 -14 -13 -20 -20 -9 -20 -13 -4 -11 -20 -20 -20 -20 -20 -20 -20 -20 -20 -20 -20 -20 -20 -20 -20 -20 -20 -20 -20 -20 -20 -20 -20 -20 -20 -20 -20 -20 -20 -20 -20 -20 -20 -20 -20 -20 -20 -20
-20 -20 -20 -20 -20 -20 -20 -20 -20 -20 -20 -20 -20 -20 -20 -20 -20 -20 -20 -20 -20 -20 -20 -20 -20 -20 -20 -20 -20 -20 -20 -20 -20 -20 -20 -20 -20 -20 -20 -20 -20 -20 -20 -20 -20 -20 -20 -20 -20 -20 -20 -20 -20 -20
-20 -20 -20 -20 -20 -20 -20 -20 -20 -20 -20 -20 -20 -20 -20 -20 -20 -20 -20 -20 -20 -20 -20 -20 -20 -20 -20 -20 -20 -20 -20 -20 -20 -20 -20 -20 -20 -20 -20 -20 -20 -20 -20 -20 -20 -20 -20 -20 -20 -20 -20 -20 -20 -20
-18 -20 -20 -20 -20 -20 -20 -20 -20 -20 -20 -20 -20 -20 -20 -20 -20 -20 -20 -20 -20 -20 -20 -20 -20 -20 -20 -20 -20 -20 -20 -20 -20 -20 -20 -20 -20 -20 -20 -20 -20 -20 -20 -20 -20 -20 -20 -20 -20 -20 -20 -20 -20 -20
-20 -20 -20 -20 -20 -20 -20 -20 -20 -20 -20 -20 -20 -20 -20 -20 -20 -20 -20 -20 -20 -20 -20 -20 -20 -20 -20 -20 -20 -20 -20 -20 -20 -20 -20 -20 -20 -20 -17 -20 -20 -20 -20 -15 -20 -20 -20 -20 -20 -20 -9 -20 -20 -20
-20 -20 -20 -20 -20 -20 -20 -20 -20 -20 -20 -20 -20 -20 -20 -20 -20 -20 -20 -20 -20 -20 -20 -20 -20 -20 -20 -20 -20 -20 -20 -20 -20 -20 -20 -20 -20 -20 -20 -20 -20 -20 -20 -20 -20 -20 -20 -20 -20 -20 -20 -20 -20 -20
-20 -20 -20 -20 -20 -20 -20 -20 -20 -20 -20 -20 -20 -20 -20 -20 -20 -20 -20 -20 -20 -20 -20 -20 -20 -20 -20 -20 -20 -20 -20 -20 -20 -20 -20 -20 -20 -20 -20 -20 -20 -20 -20 -20 -20 -20 -20 -20 -20 -17 -6 -20 -20 -20
-20 -20 -20 -20 -20 -20 -20 -20 -20 -20 -20 -20 -20 -20 -20 -20 -20 -20 -20 -20 -20 -20 -20 -20 -20 -20 -20 -20 -20 -20 -20 -20 -20 -20 -20 -20 -20 -20 -20 -20 -20 -20 -20 -20 -20 -20 -20 -20 -20 -20 -20 -20 -10 7
-20 -20 -20 -20 -20 -20 -20 -20 -20 -20 -20 -20 -20 -20 -20 -20 -20 -20 -20 -20 -20 -20 -20 -20 -20 -20 -20 -20 -20 -20 -20 -20 -18 -20 -13 -16 -20 -20 -20 -20 -20 -20 -20 -20 -20 -20 -20 -20 -20 -11 -20 -7 -13 -20
-20 -17 -19 -20 -20 -20 -20 -20 -20 -20 -20 -20 -20 -20 -20 -20 -20 -20 -20 -20 -20 -20 -20 -20 -17 -20 -2 -20 -20 -20 -20 -20 -20 -20 -20 -20 -20 -20 -20 -7 -20 -20 -20 -20 -20 -20 -20 -20 -20 -20 -20 -20 -20 -20
-20 -20 -20 -20 -20 -20 -20 -20 -20 -20 -20 -20 -20 -20 -20 -20 -20 -20 -20 -20 -20 -20 -20 -20 -20 -20 -20 -20 -20 -20 -20 -20 -20 -20 -20 -20 -7 0 19 -13 -20 -20 -20 -20 -20 -20 -20 -20 -20 -20 -20 -20 -20 -20
-20 -20 -20 -20 -20 11 -20 -20 -20 -20 -20 -20 -20 -20 -20 -20 -20 -20 -20 -20 -20 -20 -20 -20 -20 -20 -18 -20 -20 -20 -20 -20 -20 -20 -10 -16 -3 -11 14 17 -17 -20 -20 -20 -20 -20 -20 -20 -20 -20 -20 -20 -17 -19
-20 -20 -20 -20 -20 -20 -20 -20 -20 -20 -20 -20 -20 -20 -20 -20 -20 -20 -20 -20 -20 -20 -20 -20 -20 -8 0 -11 10 -20 -20 -20 -20 -20 9 7 -20 -20 -20 -20 -20 -20 -20 -20 -20 -20 -20 -20 -20 -20 -20 -20 -20 -20
-20 -20 -20 -20 -20 -18 -20 -20 -20 -20 -20 -20 -20 -20 -20 -20 -20 -20 -20 -20 -20 -20 -20 -20 -20 -20 -20 -19 -20 -20 -20 -10 -4 -20 -20 -20 -20 -20 -20 -20 -20 -20 -20 -20 -20 -20 -20 -20 -20 -20 -20 -20 -20 -20
-14 -18 -20 -9 12 -9 -16 -20 -20 -20 -20 -20 -20 -20 -20 -20 -20 -20 -20 -20 -20 -20 -20 -20 -20 -20 -20 -20 -7 -20 -9 -20 -20 -20 -20 -20 -20 -20 -20 -20 -20 -20 -20 -20 -20 -20 -20 -20 -20 -20 -20 -20 -20 -20
5 -20 -20 -4 14 -6 -9 -17 -20 -20 -20 -20 -20 -20 -20 -20 -20 -20 -20 -20 -20 -20 13 -20 -20 -20 -20 -20 -20 -20 -20 -20 -20 -20 -20 -20 -20 -20 -20 -20 -20 -20 -20 -20 -20 -20 -20 -20 -20 -20 -20 -20 -20 -19
-20 -17 -14 -10 30 19 22 6 -15 -12 -20 -20 -20 -20 -20 -20 -20 -20 -20 -20 -20 16 -12 -20 -20 -20 -20 -20 -20 -20 -20 -20 -20 -20 -20 -20 -20 -20 -20 -20 -20 -20 -20 -20 -20 -20 -20 -20 -20 -20 -20 -20 -20 -20
-20 -20 -20 14 14 26 3 8 9 -18 -20 -20 -20 -20 -20 -20 -20 -20 -20 -20 8 -19 -20 -20 -20 -20 -20 -20 -20 -20 -20 -20 -20 -20 -20 -20 -20 -20 -20 -20 -20 -20 -20 -20 -20 -20 -20 -20 -20 -20 -20 -20 -20 -20
-10 2 7 8 -13 -20 -0 -20 -20 -20 -5 -20 -20 -20 -20 -20 -20 -20 -20 -3 -16 -20 -20 -20 -20 -20 -20 -20 -20 -20 -20 -20 -20 -20 -20 -20 -20 -20 -20 -20 -20 -20 -20 -20 -20 -20 -20 -20 -20 -20 -20 -20 -20 -20
-5 -16 -20 -8 -8 4 -20 -20 -8 -20 -19 -20 -20 -2 -20 -20 -20 -20 -8 -20 -20 -20 -20 -20 -20 -20 -20 -20 -18 -20 -20 -20 -20 -20 -20 -20 -20 -20 -20 -20 -20 -19 -20 -20 -20 -20 -20 -20 -20 -20 -20 -20 -20 -20
18 -17 -20 -20 -7 -14 -20 9 -4 -3 13 -20 -17 -19 -20 -20 -20 6 14 -2 6 4 -17 -20 -20 -6 3 -1 -12 -20 -20 -20 -20 -20 -20 -20 -20 -20 -20 -20 -20 -15 -2 -18 -20 -20 -20 -20 -20 -20 -20 -20 -20 -20
4 13 -5 -11 -4 18 18 -20 -20 16 11 20 13 17 24 18 10 13 14 -4 -18 -1 8 16 18 10 -2 -15 5 -12 -20 -20 -20 -20 -20 -20 -20 -20 -20 -20 -20 -20 -20 -20 -20 -20 -20 -20 -20 -20 -20 -20 -20 -20
-20 -20 -20 -9 7 -8 -14 -18 9 -6 -1 -12 -20 -20 -18 -7 26 19 6 10 5 13 16 15 11 14 15 15 13 6 -20 -20 -20 -20 -20 -20 -20 -20 -20 -4 -20 -20 -20 -20 -20 -20 -20 -20 -20 -20 -20 -20 -20 -20
-20 -20 -20 -20 -20 -20 -19 -20 -20 -17 -20 -20 -20 -20 -20 -20 -14 -1 -1 -1 7 11 11 9 7 6 9 16 18 13 -5 -7 -0 -19 -18 -20 -20 -17 -17 -20 -20 -20 -20 -20 -20 -20 -20 -20 -20 -20 -20 -20 -20 -20
-20 -20 -20 -20 -20 -20 -20 -20 -20 -20 -20 -20 -20 -20 -10 -6 9 2 -16 -18 -20 -19 -3 6 8 5 -1 2 11 11 9 9 2 -6 -20 -20 -20 -20 -20 -20 -19 -20 -20 -20 -20 -20 -20 -20 -20 -20 -20 -20 -20 -20
-20 -20 -20 -20 -20 -20 -20 -20 -20 -20 -20 -8 -20 -20 -20 -20 -16 -17 -19 -9 -10 -20 -20 -14 -2 2 5 -0 -7 1 6 10 11 2 -20 -20 -20 -20 -20 -20 -20 -20 -20 -20 -20 -20 -20 -20 -20 -20 -20 -20 -20 -20
-20 -20 -20 -20 -20 -20 -20 -20 -20 -20 -20 -20 -19 -20 -20 -20 -10 -11 -20 -20 -20 -20 -20 -20 -20 -20 -20 -20 -20 -15 -8 -18 -20 -20 -20 -20 -20 -20 -20 -20 -20 -20 -20 -20 -20 -20 -20 -20 -20 -20 -20 -20 -20 -20
-20 -20 -20 -20 -20 -19 -20 -20 -20 -20 -20 -20 -20 -16 -20 -20 -20 -20 -20 -20 -20 -20 -20 -20 -20 -20 -20 -20 -20 -20 -20 -20 -20 -20 -20 -20 -20 -20 -20 -20 -20 -20 -20 -20 -20 -20 -20 -20 -20 -20 -20 -20 -20 -20
-20 -20 -20 -20 -20 -20 -20 -20 -20 -20 -20 -20 -18 -5 -19 -17 -20 -20 -20 -20 -20 -20 -20 -20 -20 -20 -20 -20 -20 -20 -20 -20 -20 -20 -20 -20 -20 -20 -20 -20 -20 -20 -20 -20 -20 -20 -20 -20 -20 -20 -20 -20 -20 -20
-20 -20 -20 -20 -20 -20 -20 -20 -20 -20 -20 -20 -20 -20 -20 -20 -20 -20 -20 -20 -20 -20 -20 -20 -20 -20 -20 -20 -20 -20 -20 -20 -20 -20 -20 -20 -20 -20 -20 -20 -20 -20 -20 -20 -20 -20 -20 -20 -20 -20 -20 -20 -19 -4

GFSWCAN_prec_radar_207.txt.gz
Reflectivity
1 -8 -20 -1 6 13 14 23 39 33 33 30 24 23 28 23 23 22 3 7 19 28 27 31 34 -14 -20 -20 -16 21 20 16 16 13 19 21 19 15 13 -4 -20 -20 -20 -20 -20 -20 -20 -20 -20 -20 -20 -20 -20 -20
-4 -5 -7 -11 -20 2 12 14 19 30 40 31 30 21 25 25 25 0 8 17 19 41 34 32 33 27 2 -20 -20 7 13 20 18 20 19 12 6 10 11 8 -3 -20 -20 -20 -20 -20 -20 -20 -20 -20 -20 -20 -20 -20
-20 -20 -20 -20 -20 -20 -3 14 17 24 28 35 39 31 22 8 22 12 11 23 39 30 24 21 27 23 -9 12 30 29 29 26 25 26 24 18 19 15 7 2 -20 -20 -20 -20 -20 -20 -20 -20 -20 -20 -20 -20 -20 -20
-20 -20 -20 -20 -20 -20 -20 -18 11 18 20 30 34 38 40 37 35 25 22 35 37 31 22 26 34 31 32 36 34 27 13 6 9 15 13 12 4 6 -1 -20 -20 -20 -20 -20 -20 -20 -20 -20 -20 -20 -20 -20 -20 -20
-20 -20 -20 -20 -20 -20 -20 -20 -20 -4 2 14 25 27 35 39 37 38 37 29 19 3 9 19 19 20 20 11 4 12 13 11 -4 -5 -6 4 -19 -20 -20 -20 -20 -20 -20 -20 -20 -20 -20 -20 -20 -20 -20 -20 -20 -20
-20 -20 -20 -20 -20 -20 -20 -20 -20 -20 -20 -13 4 15 18 26 34 24 29 32 25 21 24 17 17 18 16 14 9 4 -14 -20 -20 -15 -18 -20 -20 -20 -20 -20 -20 -20 -20 -20 -20 -20 -20 -20 -20 -20 -20 -20 -20 -20
-20 -20 -20 -20 -20 -20 -20 -20 -20 -20 -20 -20 -20 -3 -3 11 14 17 -1 11 11 14 10 6 13 5 -2 3 -3 -18 -20 -20 -20 -20 -20 -20 -20 -20 -20 -20 -20 -20 -20 -20 -20 -20 -20 -20 -20 -20 -20 -20 -20 -20
-20 -20 -20 -20 -20 -20 -20 -20 -20 -20 -20 -20 -20 -20 -20 -14 -12 -9 -3 6 -6 10 5 9 7 4 1 -3 -17 -20 -20 -20 -20 -20 -20 -20 -20 -20 -20 -20 -20 -20 -20 -20 -20 -20 -20 -20 -20 -20 -20 -20 -20 -20
-20 -20 -20 -20 -20 -20 -20 -20 -20 -20 -20 -20 -20 -20 -20 -20 -20 -20 -15 -18 -20 -20 -20 -20 -19 3 -20 -20 -20 -20 -20 -20 -20 -20 -20 -20 -20 -20 -20 -20 -20 -20 -20 -20 -20 -20 -20 -20 -20 -20 -20 -20 -20 -20
-20 -20 -20 -20 -20 -20 -20 -20 -20 -20 -20 -20 -20 -20 -20 -20 -20 -20 -20 -20 -20 -20 -20 -20 -20 -20 -20 -20 -20 -20 -20 -20 -20 -20 -20 -20 -20 -20 -20 -20 -20 -20 -20 -20 -20 -20 -20 -20 -20 -20 -20 -20 -20 -20
-20 -20 -20 -20 -20 -20 -20 -20 -20 -20 -20 -20 -20 -20 -20 -20 -20 -20 -20 -20 -20 -20 -20 -20 -20 -20 -20 -20 -20 -20 -20 -20 -20 -20 -20 -20 -20 -20 -20 -20 -20 -20 -20 -20 -20 -20 -20 -20 -20 -20 -20 -20 -20 -20
-20 -20 -20 -20 -20 -20 -20 -20 -20 -20 -20 -20 -17 -20 -20 -20 -20 -20 -20 -20 -20 -20 -20 -20 -20 -20 -20 -20 -20 -20 -20 -20 -20 -20 -20 -20 -20 -4 -19 -20 -20 -20 -20 -20 -20 -20 -20 -20 -20 -20 -20 -20 -20 -20
-20 -20 -20 -20 -20 -20 -20 -20 -20 -20 -20 -20 -20 -20 -20 -20 -20 -20 -20 -20 -20 -20 -1 -19 -20 -20 -20 -20 -20 -20 -20 -20 -20 -20 -20 -20 -20 3 2 -12 -20 -20 -20 -20 -20 -20 -20 -20 -20 -20 -20 -20 -20 -20
-7 -13 -20 -20 -20 -20 -20 -20 -20 -20 -20 -20 -20 -20 -20 -20 -20 -20 -20 -20 -20 -20 -20 -20 -5 -20 -20 -20 -20 -20 -20 -20 -20 -20 -20 -20 -16 -8 -20 -20 -20 -20 -20 -20 -20 -20 -20 -20 -20 -20 -20 -20 -20 -20
-5 -3 -20 -20 -20 -20 -20 -20 -20 -20 -20 -20 -20 -20 -20 -20 -20 -20 -20 -20 -20 -20 -20 -20 -20 -20 -20 -20 -20 -20 -20 -20 -20 -20 -20 -20 -20 -20 -20 -20 -20 -20 -20 -20 -20 -20 -20 -20 -20 -20 -20 -20 -20 -20
-20 -20 -20 -20 -20 -20 -20 -20 -20 -20 -20 -20 -20 -20 -20 -20 -20 -20 -20 -20 -20 -20 -20 -20 -12 -5 -20 -20 -20 -20 -20 -20 -20 -20 -20 -20 -20 -20 -20 -20 -20 -20 -20 -20 -20 -20 -20 -20 -20 -20 -20 -20 -20 -20
-20 -15 8 7 5 -19 -20 -20 -20 -20 -20 -20 -20 -20 -20 -20 -20 -20 -20 -20 -20 -20 -20 -20 -20 -20 -20 -20 -2 -20 -20 -20 -20 -20 -20 -20 -20 -20 -20 -20 -20 -20 -20 -20 -20 -20 -20 -20 -20 -20 -20 -20 -20 -20
-14 -17 -20 -4 -3 -19 -20 -20 -20 -20 -20 -20 -20 -20 -20 -20 -20 -20 -20 -20 -20 -20 -20 -20 -20 -20 -20 -20 -20 -20 -20 -20 -20 -20 -20 -20 -20 -20 -20 -20 -20 -20 -20 -20 -20 -20 -20 -20 -20 -20 -20 -20 -20 -20
-9 -4 -20 -20 7 -14 -12 -20 -20 -20 -20 -20 -20 -20 -20 -20 -20 -20 -20 -20 -20 -20 -20 -20 -20 -20 -20 -20 -20 -20 -20 -20 -20 -20 -20 -20 -20 -20 -20 -20 -20 -20 -20 -20 -17 -20 -20 -20 -20 -20 -20 -20 -20 -20
-20 -20 -15 -17 -20 -6 -16 -16 -20 -11 -20 -20 -20 -20 -20 -20 -20 -20 -20 -20 -20 -13 -16 -20 -20 -20 -20 -20 -20 -20 -20 -20 -20 -20 -20 -20 -20 -20 -20 -20 -20 -20 -14 -20 -20 -20 -20 -20 -20 -20 -20 -20 -20 -20
-20 -20 -20 14 8 -5 -1 -20 -20 -20 -20 -20 -20 -20 -20 -20 -20 -11 -14 -20 1 -9 -20 -20 -20 -20 -20 -20 -20 -20 -20 -20 -20 -20 -20 -20 -20 -20 -20 -20 -20 -20 -18 -18 -20 -17 -20 -20 -20 -20 -20 -20 -20 -20
-20 -15 -14 2 -20 -20 -20 -16 -9 1 -20 -20 -20 -20 -20 -20 -20 -20 -17 5 -2 -7 -20 -20 -20 -20 -20 -20 -20 -20 -20 -20 -20 -20 -20 -20 -20 -20 -20 -20 -20 -20 -19 -20 -20 -20 -20 -20 -20 -20 -20 -20 -20 -20
-20 -20 -20 -20 -20 -20 -20 -2 2 -20 -20 -20 -20 -4 -20 14 -6 -20 1 -6 6 -13 -19 -20 -20 -20 -20 -20 -20 -20 -20 -20 -20 -20 -20 -20 -20 -20 -20 -12 -20 -20 -20 -20 -20 -20 -20 -20 -20 -20 -20 -19 -20 -20
-5 -20 -20 -9 -20 -20 -20 -20 -20 3 3 -11 6 -13 -20 -11 -20 6 18 -14 -17 -17 -20 -20 -20 -19 -5 1 -0 -13 -17 -20 -20 -20 -20 -20 -20 -20 -20 -20 -20 -20 -20 -20 -20 -20 -20 -20 -20 -20 -20 -20 -20 -20
-13 -20 -20 -20 -15 -20 -20 -20 -20 2 -2 -20 -20 -2 22 21 21 15 7 4 -3 -7 -19 -19 -1 4 -5 5 9 8 9 7 -5 -12 -18 -20 -20 -20 -19 -20 -20 -20 -20 -20 -20 -20 -20 -20 -20 -20 -20 -20 -20 -20
-20 -20 -20 -20 -20 -20 -20 -20 -20 -20 -20 -20 -20 -20 -20 -20 -20 -20 -17 -19 -20 -11 1 2 2 7 7 13 12 8 10 11 10 3 3 -6 -20 -20 -20 -20 -20 -20 -20 -20 -20 -20 -20 -20 -20 -20 -20 -20 -20 -20
-20 -20 -20 -20 -20 -20 -20 -20 -20 -20 -20 -20 -20 -20 -20 -20 -20 -14 -20 -20 -20 -20 -20 -1 10 13 13 12 13 15 15 13 12 11 7 2 -10 -20 -10 1 -12 -20 -20 -20 -20 -20 -20 -20 -20 -20 -20 -20 -20 -20
-20 -20 -20 -20 -20 -20 -20 -20 -20 -20 -20 -17 -20 -20 -20 -20 -20 -20 -20 -20 -20 -20 -20 -20 -17 5 10 13 11 15 15 16 15 14 12 9 6 3 2 -0 -15 -20 -20 -20 -20 -20 -20 -20 -20 -20 -20 -20 -20 -20
-20 -20 -20 -20 -20 -20 -20 -20 -20 -20 -20 -20 -20 -20 -20 -20 -20 -20 -20 -20 -20 -14 -13 -20 -20 -20 -20 -20 -20 -13 -2 -0 9 13 10 -1 -14 -20 -20 -20 -20 -20 -20 -20 -20 -20 -20 -20 -20 -20 -20 -20 -20 -20
-20 -20 -20 -20 -20 -20 -20 -20 -20 -20 -20 -20 -20 -20 -20 -20 -20 -20 -20 -20 -20 -20 -20 -20 -20 -20 -20 -20 -20 -20 -20 -20 -20 -20 -20 -20 -20 -20 -20 -20 -20 -20 -20 -20 -20 -20 -20 -20 -20 -20 -20 -20 -20 -20
-20 -20 -20 -20 -20 -20 -20 -20 -20 -20 -20 -20 -20 -20 -20 -20 -20 -20 -20 -20 -20 -20 -20 -20 -20 -20 -20 -20 -20 -20 -20 -20 -20 -20 -20 -20 -20 -20 -20 -20 -20 -20 -20 -20 -20 -20 -20 -20 -20 -20 -20 -20 -20 -20
-20 -20 -20 -20 -20 -20 -20 -20 -20 -20 -20 -20 -20 -20 -20 -20 -20 -20 -20 -20 -20 -20 -20 -20 -20 -20 -20 -20 -20 -20 -20 -20 -20 -20 -20 -20 -20 -20 -20 -20 -20 -20 -20 -20 -20 -20 -20 -20 -20 -20 -20 -20 -20 -20
-20 -20 -20 -20 -20 -20 -20 -20 -20 -20 -20 -20 -20 -20 -20 -20 -20 -20 -20 -20 -20 -20 -20 -20 -20 -20 -20 -20 -20 -20 -20 -20 -20 -20 -20 -20 -20 -20 -20 -20 -20 -20 -20 -20 -20 -20 -20 -20 -20 -20 -20 -20 -20 -20

GFSWCAN_prec_radar_210.txt.gz
Reflectivity
-20 -20 -20 -20 -20 -6 3 18 32 36 29 25 -20 -20 -3 26 25 23 17 17 0 25 25 28 39 22 18 18 11 27 16 23 13 8 13 18 20 6 -20 -12 7 15 12 7 -6 -2 3 -20 -17 -20 -20 -20 -20 -20
-20 -20 -20 -20 -20 -20 -15 6 17 29 34 23 9 25 22 27 25 21 -7 21 20 23 8 37 37 34 1 17 18 0 -20 -19 8 12 -9 -4 -1 -20 -20 -11 -8 14 3 -20 -19 -1 -11 -20 -20 -20 -20 -20 -20 -20
-20 -20 -20 -20 -20 -20 -19 3 6 3 26 29 31 -14 19 21 31 30 23 5 17 17 14 14 30 33 31 20 -13 -16 1 -20 -16 -20 -19 -5 -20 -20 -20 -20 -20 -6 18 22 19 5 -19 -20 -20 -20 -20 -20 -20 -20
-20 -20 -20 -20 -20 -20 -20 -9 3 -6 -2 16 32 18 23 20 25 22 6 9 9 20 11 21 35 35 36 16 -20 -20 -20 -20 -9 -5 -7 -5 -9 7 15 22 23 18 17 10 11 -5 -20 -20 -20 -20 -20 -20 -20 -20
-20 -20 -20 -20 -20 -20 -20 -20 1 5 -3 9 25 36 30 29 31 12 21 29 33 29 19 22 19 29 37 35 27 17 23 27 28 13 10 13 14 13 8 6 -4 -7 4 7 -2 -20 -20 -20 -20 -20 -20 -20 -20 -20
-8 -20 -20 -20 -20 -20 -20 -20 -20 -5 3 7 16 23 37 38 37 35 32 35 33 22 18 12 26 31 29 27 22 25 28 20 -10 -16 3 -17 -7 -12 1 3 3 8 -0 -19 -20 -20 -20 -20 -20 -20 -20 -20 -20 -20
-9 -12 -20 -20 -20 -20 -20 -20 -20 -20 -4 4 9 11 19 23 18 22 20 32 28 28 23 18 14 26 18 20 14 14 7 -5 -2 -9 -1 1 -2 -20 -20 -20 -20 -20 -20 -20 -20 -20 -20 -20 -20 -20 -20 -20 -20 -20
-16 -9 -14 -20 -20 -20 -20 -20 -20 -20 -20 -9 3 8 -5 5 9 20 20 12 21 12 13 20 20 18 18 14 5 -7 -8 -2 2 3 4 -15 -20 -20 -20 -20 -20 -20 -20 -20 -20 -20 -20 -20 -20 -20 -20 -20 -20 -20
-20 -20 -20 -20 -20 -20 -20 -20 -20 -20 -20 -20 -20 -10 -8 -4 -7 -5 17 26 26 23 18 12 13 14 10 7 8 9 4 2 -2 -2 -11 -20 -20 -20 -20 -20 -20 -20 -20 -20 -20 -20 -20 -20 -20 -20 -20 -20 -20 -20
-20 -20 -20 -20 -20 -20 -20 -20 -20 -20 -20 -20 -20 -20 12 -20 -20 -12 -20 6 8 7 7 13 12 15 11 8 8 -7 -7 -10 -6 -18 -20 -20 -20 -20 -20 -20 -20 -20 -20 -20 -20 -20 -20 -20 -20 -20 -20 -20 -20 -20
-13 -20 -20 -20 -20 -20 -20 -20 -20 -20 -20 -20 -20 -20 -20 -20 -20 -20 -14 -20 -20 -20 -6 4 -20 -13 -7 -6 -13 -20 -6 -20 -17 -20 -20 -19 -20 -20 -20 -20 -20 -20 -20 -20 -20 -20 -20 -20 -20 -20 -20 -20 -20 -20
7 2 -20 -20 -20 -20 -20 -20 -20 -20 -20 -13 -11 -20 -20 -20 -20 -20 -20 -20 -16 3 6 6 7 -2 -12 -20 -20 -6 -3 -4 -6 -19 1 -3 -4 -14 -20 -16 -20 -20 -20 -20 -20 -20 -20 -20 -20 -20 -20 -20 -20 -4
11 5 2 -20 -20 -20 -20 -20 -20 -20 -20 -20 -20 -20 -20 -20 -20 -20 -20 -2 8 4 -3 -15 -6 -19 -20 -20 -18 -15 -15 5 2 9 0 -1 -0 -4 -20 -20 -20 -20 -20 -20 -20 -20 -20 -20 -20 -20 -20 -20 -16 -2
9 -2 0 -20 -20 -20 -20 -20 -20 -20 -20 -20 -20 -20 -20 -19 -1 -2 -18 -14 -11 -17 -6 -10 3 2 0 -12 -20 -20 2 3 6 5 -14 3 5 -3 -9 -20 -20 -20 -20 -20 -20 -20 -20 -20 -18 -20 -20 -20 -19 -20
-14 -20 -18 0 -20 -8 -20 -20 -20 -20 -20 -20 -20 -20 2 -20 -4 -20 -13 -1 -10 2 2 -20 -2 -1 -11 -8 -1 -2 -3 -0 -6 -20 -16 1 6 -1 -20 -20 -20 -20 -20 -20 -20 -20 -20 -20 -20 -20 -20 -20 -20 -20
-20 -20 -20 -20 -9 -20 -20 -20 -20 -20 -20 -20 -20 0 -20 2 6 8 -1 -1 1 2 -20 -14 -5 0 -1 0 -14 -20 -20 -20 -20 -20 -11 -7 -1 -5 -20 -20 -20 -20 -20 -20 -20 -8 -20 -20 -20 -20 -20 -20 -20 -20
-20 6 -20 -20 -20 -20 -20 -20 -20 -20 -20 -20 -20 -19 -18 -17 -18 -20 3 -1 -19 1 1 -19 -20 -19 2 1 1 -20 -20 -8 -20 -1 -1 -20 -19 -16 -20 -20 -20 -20 -20 2 -20 -20 -20 -20 -20 -20 -20 -20 -5 -19
-2 -13 -17 -20 -20 -18 1 -20 -18 -20 -20 -20 -20 -20 -20 -20 -20 -20 -20 -20 10 9 7 -18 -20 -20 -20 -20 -16 5 -20 -20 0 -14 1 -13 -20 -20 -20 -5 -20 -20 -15 -20 -20 -17 -20 -20 -20 -19 -20 -6 -20 -13
-5 -10 -20 -19 -20 -8 -20 -10 -20 -16 -20 -20 -15 -20 -20 -20 -20 -20 -12 -15 -12 -20 -4 -20 -20 -20 -20 -20 -3 -20 -20 -20 -20 -9 -20 -20 -20 -20 -20 -20 -20 -20 -20 -13 -13 -14 -10 -20 -20 -18 -18 -20 -19 -20
-20 -20 -20 -16 -20 -15 -2 3 -17 -17 -7 -9 -16 -20 -20 -20 -20 -8 -15 -20 -5 15 0 -20 -20 9 -12 11 -20 -9 -20 -20 -20 -20 -12 -1 -15 -20 -20 -0 6 -15 -17 -20 -4 -15 -12 -11 -20 -20 -20 -16 -4 -5
-20 -20 -20 8 5 -6 -20 -8 8 -0 -1 -2 -20 -20 8 -20 -20 -20 -20 -3 4 8 -2 -20 2 -20 -20 -20 -20 -20 -20 -20 -20 -20 -20 -20 -1 -20 -10 -2 1 -16 -20 -20 -19 -2 -9 -2 -20 -20 -20 -20 -18 -20
-20 -20 2 3 -16 -20 -6 -11 5 10 -0 2 -3 -3 -4 -15 -17 -5 -4 4 10 -0 -20 -10 -3 -20 -20 -20 -20 -20 -20 -20 -20 -20 -20 -20 2 2 5 3 -0 -0 -1 -1 -20 -19 -15 -1 -20 -17 -8 -20 -5 -15
-16 -20 -14 -20 -20 -20 -19 -13 5 8 -1 9 3 -2 -10 -20 -5 -2 20 -6 1 0 -13 -20 -20 -20 -20 -20 -20 -20 -20 -20 -20 -20 -20 -20 0 6 -6 -8 7 7 2 7 -20 -20 -16 -20 -5 -3 -3 -12 -20 -8
-20 3 -0 -20 -12 -20 -20 -12 10 14 16 14 17 -20 7 10 -4 24 14 12 6 -20 -20 -20 -20 -20 -10 -13 -12 -17 -7 6 4 -20 -9 -6 4 2 -20 -20 -3 -3 4 -1 -3 -1 -4 -2 -18 -2 -1 -9 -20 -17
-20 -20 -20 -20 -5 -20 -20 -20 -20 8 -3 -20 10 1 -20 7 15 17 -4 0 -3 -5 -3 -4 -3 -19 -15 -3 -3 -8 3 12 14 8 7 6 2 -2 8 -1 -6 -1 -20 -5 -4 -5 -5 -20 -5 -2 -3 -2 -8 -19
-20 -20 -19 -20 -20 -20 -20 -18 -1 -1 -5 -20 -13 -18 -1 -16 -20 -15 2 7 1 -2 -1 1 -1 -13 -6 -0 -4 -5 6 13 12 7 6 8 12 10 -6 -1 -2 -16 -20 -5 -3 -7 -8 -20 -20 -14 -4 -3 -20 -4
-20 -20 -20 -20 -20 -20 -20 -20 -20 -20 -20 -9 -2 -20 -2 -20 -20 0 4 -6 1 -1 -1 -1 -1 -20 -20 -15 -0 4 8 10 9 7 7 9 7 3 -17 -9 -19 -18 -12 -18 -20 -18 -2 -3 -5 -7 -4 -3 -1 -0
-20 -20 -20 -20 -20 -20 -20 -20 -13 -2 3 -6 -20 -7 -6 -20 -20 -4 -2 -1 -1 -3 -7 -20 -20 -20 -20 -20 -6 -0 4 8 5 7 8 7 9 10 9 6 8 9 5 -6 -20 -20 -20 -20 -20 -20 -18 -5 -2 -2
-20 -20 -20 -20 -20 -18 -17 -18 -7 1 -20 -15 3 4 -1 -20 -10 -1 -6 -3 -2 -4 -20 -20 -20 -20 -20 -20 -20 -18 -3 3 4 2 0 3 6 5 0 -9 -20 -20 -20 -20 -20 -20 -20 -20 -20 -20 -20 -20 -15 -2
-20 -20 -20 -20 -20 -16 -7 -20 -20 -20 -20 -20 -20 -14 -20 -4 -0 -1 -2 -14 -20 -20 -20 -20 -20 -20 -20 -20 -20 -20 -14 -20 -20 -20 -19 -19 -20 -13 -11 -20 -20 -20 -20 -20 -20 -20 -20 -20 -20 -20 -20 -20 -20 -20
-20 -20 -20 -20 -20 -0 -13 -20 -20 -20 -20 -20 -20 -4 -10 -7 -0 -0 -20 -20 -20 -20 -20 -20 -20 -20 -20 -20 -20 -20 -20 -8 -20 -20 -20 -9 0 -1 -1 -14 -20 -20 -20 -20 -20 -20 -20 -20 -20 -20 -20 -20 -20 -20
-20 -20 -20 -20 -20 -20 -20 -20 -20 -20 -20 -0 -12 -20 -7 -4 -19 -5 -1 -20 -20 -20 -20 -20 -20 -20 -20 -20 -20 -20 -20 -20 -20 -20 -20 -20 -3 1 0 -3 -20 -20 -20 -20 -20 -20 -20 -20 -20 -20 -20 -20 -20 -20
-20 -20 -20 -20 -20 -20 -20 -20 -20 -20 -20 -20 -14 -20 -7 -6 -20 -20 -20 -20 -20 -20 -20 -20 -20 -20 -20 -20 -20 -20 -20 -20 -20 -20 -20 -20 -20 -20 -13 -2 -20 -20 -20 -20 -20 -20 -20 -20 -20 -20 -20 -20 -20 -20

GFSWCAN_prec_radar_216.txt.gz
Reflectivity
2 8 -20 -20 4 12 6 -10 -2 -1 5 20 23 13 24 30 33 34 31 18 10 8 21 29 27 33 19 21 24 16 23 -13 24 22 39 33 39 27 -18 -18 -10 -6 -12 -4 6 -15 -20 -20 -20 -20 -20 -20 -20 -20
-16 8 1 -20 -20 -1 -15 -2 -0 -8 -20 6 15 7 8 -20 -19 -20 11 10 21 22 -0 -18 -20 -19 -18 6 24 18 37 17 7 28 39 39 34 35 3 -11 -20 -20 -20 -20 -20 -20 -20 -20 -20 -20 -20 -20 -20 -20
-20 -6 -5 -20 -20 -20 3 -13 2 -0 -20 1 8 -10 -20 -20 12 -20 -17 25 28 22 -4 12 -6 -20 -20 -6 -1 -16 -2 33 28 -10 29 34 38 37 31 -10 -20 -20 -20 -20 -20 -20 -20 -20 -20 -20 -20 -20 -20 -20
-20 -20 -20 -20 -20 -20 -11 -1 0 -0 -20 -12 14 7 18 -20 0 13 -20 4 -6 17 24 -4 -20 3 0 2 1 -3 -4 12 30 26 4 34 32 16 15 9 15 -11 -9 -12 -20 -20 -20 -20 -20 -20 -20 -20 -20 -20
9 -0 3 -20 -20 -20 -20 2 -2 -1 -20 -20 11 14 -20 16 15 9 2 -10 -8 38 19 8 -15 -2 3 17 2 -1 1 6 31 25 32 36 39 32 32 18 21 18 16 6 -20 -20 -20 -20 -20 -20 -20 -20 -20 -20
-20 -20 -1 -20 -20 -20 -20 2 -1 0 -20 -20 -15 31 2 6 8 16 24 -8 -20 20 28 6 -3 12 27 31 30 17 21 39 28 36 18 13 37 31 25 16 5 6 14 -20 -0 -7 -20 -20 -20 -20 -20 -20 -20 -20
-13 3 6 5 -20 -17 -20 -20 -8 -7 -4 -20 23 13 27 30 27 33 24 -5 14 23 34 13 10 13 33 34 34 35 36 39 33 32 33 34 17 22 24 8 22 11 -20 -20 -13 -20 -20 -20 -20 -20 -20 -20 -20 -20
11 -0 -17 -9 1 -20 -20 -20 -20 -20 -20 -20 -20 -14 19 25 29 34 31 30 24 31 23 16 3 10 15 23 28 36 38 20 27 31 31 14 19 24 15 7 -2 -20 -20 -20 -20 -20 -20 -20 -20 -20 -20 -20 -20 -20
1 7 1 4 5 -20 -20 -10 -20 -20 -20 -20 -20 -20 -20 9 -2 12 -9 18 24 24 17 12 17 12 8 20 26 21 -7 18 17 12 27 21 -16 -19 3 22 8 -20 -20 -20 -20 -10 -20 -20 -20 -20 -20 -20 -20 -20
-4 -13 13 9 6 1 -20 2 -20 -20 -20 -20 -20 -0 14 -1 -20 -20 -4 -4 2 14 9 5 -19 4 15 -1 13 14 10 17 17 12 7 8 8 2 -13 4 8 -20 4 11 -13 -20 -20 -20 -20 -20 -20 -20 -20 -20
-7 -2 -2 -8 6 5 -1 -3 -20 -20 -20 3 2 23 -20 -20 -20 17 -0 11 -3 11 9 2 -17 -20 -20 6 10 11 12 10 9 7 7 -3 -4 -20 -20 -20 -6 -12 -2 -19 -20 -20 -20 -20 -20 -20 -20 -20 -20 -20
-6 -2 3 -3 2 12 -20 -20 -20 -20 -20 -20 -20 -20 -20 -8 5 -4 -14 -20 2 -0 14 9 4 -2 4 0 -5 3 9 13 11 2 3 -6 -8 -17 -20 -20 -20 -20 -20 -20 -20 -20 -20 -20 -20 -20 -20 -20 -20 -20
-20 -19 5 -2 -10 -17 -20 -20 -20 -20 -20 -20 -20 -20 -20 9 -16 -20 2 -18 -19 6 15 -12 13 -9 5 -12 2 2 13 -4 -11 10 9 9 6 -4 -1 3 4 -5 -20 -20 6 9 7 -16 -20 -20 -20 -20 -20 -20
-8 -20 2 0 -1 -20 -20 -20 -20 -20 -20 -4 7 -14 -6 21 -18 2 7 18 -18 -2 8 3 9 13 14 7 7 -3 -20 -17 12 -5 6 4 -20 -12 -14 3 6 7 -9 -4 -20 -20 -17 -20 -20 -20 -20 -20 -20 -20
-20 -20 -8 2 -20 -20 -20 -20 -20 -20 -0 -4 -3 -6 -2 -17 -13 -7 -12 -15 -12 4 8 11 -10 -7 -5 -12 1 -15 -14 -9 -6 2 4 -1 -19 -20 -20 -20 -20 -20 -15 -5 -4 -5 -11 -17 -20 -20 -20 -20 -20 -20
-20 -20 7 -20 -20 -20 -20 -20 -14 -20 -20 -11 -6 -1 13 23 6 12 19 16 22 -7 -15 -7 13 -16 -11 -18 -6 -2 -6 3 -5 2 3 -17 -20 -20 -20 -20 -20 -20 -20 -19 -17 -16 -18 -20 -20 -20 -20 -20 -20 -20
-20 14 -19 -20 -20 -20 -20 -17 -20 -20 -20 -13 -19 -19 23 16 4 -20 -2 7 16 19 17 -16 -4 -14 -19 -1 6 17 8 22 9 11 -6 -20 -4 -20 -20 -20 -20 -20 -20 -17 -20 -19 -13 -19 -20 -20 -20 -1 -20 -20
6 2 -20 -20 -20 -19 -20 -4 -3 -20 -16 -11 17 -13 4 5 12 26 15 1 20 20 15 -20 -18 -17 -7 14 21 9 10 7 10 -9 -20 -19 -20 -20 -20 -19 -20 -20 -4 -20 -20 -20 -20 -20 -20 -20 -20 -20 -20 -20
2 -15 -20 -20 -10 0 -10 -10 -20 4 2 -1 2 -2 -19 -13 5 -18 -20 -15 6 20 2 -3 -20 15 20 -1 10 -6 10 4 11 6 -1 -20 -20 -20 -20 -20 -20 -20 -20 -20 -20 -20 -17 -20 -20 -20 -20 -20 -20 -16
-20 -20 -20 -20 -20 -9 5 6 -20 4 11 5 5 -8 12 14 -1 -17 -20 -20 11 5 5 7 7 4 1 3 19 -11 -13 -18 -20 -20 -20 -20 -20 -20 -20 -20 -20 -20 -20 -16 4 -14 -20 -8 -20 -20 -20 -13 -20 -20
-13 -8 -20 -20 -20 -3 -1 1 9 3 5 -0 -10 -1 20 8 17 11 13 -20 1 -19 18 5 6 -7 -16 -18 -12 13 -20 -20 -20 -20 -20 -20 -20 -20 -20 -20 -20 -20 -4 -9 -18 -15 -6 -7 -20 -20 -20 -19 -20 -20
-17 -20 -15 -20 0 -16 -17 -6 -11 -13 13 6 -17 8 13 15 -3 12 15 13 13 6 1 10 4 -15 -20 -20 -20 -20 -20 -6 18 8 -20 -20 -20 -4 -9 -10 -12 -6 -18 -4 -20 -18 -11 -20 -13 -8 -3 -2 1 -1
-16 -13 1 0 -20 -20 -11 -20 4 8 12 10 -14 9 -1 -20 10 20 17 5 12 12 5 1 -12 4 3 -8 -19 -20 -20 -20 -18 -5 -20 -20 -20 -20 0 -20 -20 -7 -5 -1 -18 -7 -17 6 -2 5 -20 -14 -5 0
-20 -5 -4 1 -9 -10 -19 -14 -15 8 -6 9 10 11 17 -10 -1 8 3 8 7 -1 -6 2 -20 -4 5 -7 -14 -20 -20 -20 -20 5 -8 -20 -20 -11 -20 -20 -5 -0 -13 -20 -20 -20 -20 -18 -1 -16 -20 -12 -16 -4
7 -13 1 -20 -1 -13 -20 -7 -20 -20 -19 -19 5 16 4 2 14 -2 1 7 3 2 1 -14 8 -3 -15 -20 -19 -20 -20 -8 -12 2 16 21 2 10 5 3 -4 -3 -1 -0 1 -20 -20 -20 -20 -20 -20 -20 -20 -19
-20 -14 3 -9 -3 -10 -20 -13 1 1 -6 -18 7 3 -9 7 11 9 5 9 6 4 3 1 3 6 3 3 -1 -1 -3 -9 11 -6 8 -8 10 9 -3 -13 -19 -16 -1 3 -20 -16 -19 -10 -20 -20 -20 -10 -6 -16
-17 -4 -20 -20 -20 -20 -20 -12 -20 -20 -20 -1 3 -3 5 7 10 7 4 2 7 5 4 2 4 3 4 4 2 7 3 -12 -11 11 16 15 16 17 3 8 10 -4 -9 -10 -7 10 -9 -20 -12 -16 -10 -19 -20 -20
-3 -10 -20 -5 -20 -20 -20 -20 -20 -8 2 -20 0 3 5 7 9 7 5 4 5 3 0 -3 -3 0 2 2 3 -0 -1 0 -18 3 9 11 15 18 13 4 -5 8 12 6 -20 -20 -18 -15 -6 -20 -17 2 10 -12
-0 -14 -20 -20 -20 -20 -18 -18 -11 -15 -20 -13 3 11 12 1 1 10 5 -17 3 6 5 6 3 5 5 6 1 -1 -4 -14 -20 -10 -20 -2 8 12 11 6 -1 -2 3 -7 -20 -20 -20 -20 -20 -20 -20 -20 -15 -20
-12 -20 -20 -20 -20 -16 -1 4 7 -17 -20 -20 -20 -20 -14 -8 -2 -15 2 6 11 10 2 2 4 1 -4 -1 1 -0 -20 -20 -20 -20 -10 -13 3 7 5 1 -0 -2 0 -2 -3 1 2 -11 -20 -18 -17 -12 -13 1
-20 -20 -20 -20 -13 8 -3 -1 -5 -20 -20 -8 -11 -7 7 -0 -4 -17 0 4 4 5 4 6 3 2 -2 -3 -4 -16 5 -9 -20 -20 -20 -11 -20 8 -3 -2 4 -3 0 1 -3 -5 -16 -20 -10 -12 -10 -8 -9 -20
-1 -11 -20 -20 -2 -2 -5 -0 1 1 1 1 2 -3 -9 -11 3 -1 -20 3 4 8 -18 -19 -0 -4 -20 -6 -16 1 -20 -7 3 -7 -14 -20 -19 -20 -20 -16 0 -1 -4 -20 -20 -20 -20 -20 -18 -2 -4 -20 -20 1
-6 -20 -20 -8 -9 -2 -4 -17 -20 -9 -1 -1 3 -5 1 -2 -10 4 -3 -2 11 11 -13 4 -2 -7 -18 -20 -20 -16 -19 2 -20 -20 -20 -20 -20 -20 -20 -10 3 -7 -9 -4 -5 -7 -17 -17 -20 -20 -20 -20 -20 -20

GFSWCAN_prec_radar_219.txt.gz
Reflectivity
10 5 -20 -20 -20 -14 2 -20 -18 -4 7 6 -0 -1 23 33 25 30 24 19 20 29 29 15 -9 -20 -20 22 20 7 4 20 20 23 25 25 10 7 24 35 34 28 25 17 7 14 11 -8 -14 -9 -12 -20 -19 -1
11 11 7 -20 -20 -13 3 -20 -20 -8 8 7 4 7 1 19 29 26 32 36 33 29 20 -19 -20 -20 -20 -20 -20 -20 20 -10 33 15 17 23 20 7 -3 26 16 11 8 10 -1 -20 -20 -20 -20 -20 -19 2 5 2
-10 -1 -9 -8 -20 -5 1 1 -20 -1 8 5 -5 8 -20 -19 14 19 8 32 5 22 -10 -20 -20 -20 -20 -20 -20 -20 -14 10 -14 3 34 15 24 30 29 20 17 10 21 -13 -15 -20 -20 -20 -20 -20 -20 -20 -11 -10
13 -9 -20 -20 -16 -2 -1 -4 -13 0 8 -12 -5 -3 12 -18 -20 -2 -19 -7 -20 -20 -20 -20 -20 -20 -20 -20 -20 -20 -20 -1 -20 8 26 31 15 23 8 10 -19 -6 26 28 5 -20 -20 -20 -20 -20 -20 -20 -20 -20
13 -2 -1 -17 -4 -17 0 -5 -14 2 8 8 8 7 -20 -20 6 7 -20 -20 -20 -20 -9 -15 -20 -20 -20 -20 -11 -20 -19 -4 7 -1 16 19 22 24 19 35 29 31 29 20 4 -20 -20 -8 2 -20 -10 -20 -20 -20
7 -9 14 -20 5 -20 3 -20 -12 3 6 11 -8 26 6 4 -20 -20 -20 -20 -20 -20 -6 -5 -20 -20 -20 -20 4 6 15 20 1 3 28 31 22 1 21 24 29 26 13 -13 1 5 21 13 -13 -20 2 3 -20 -20
2 7 3 11 9 6 -2 -5 -6 -4 5 9 9 0 22 12 -7 14 -13 -20 -19 -15 21 -17 -20 -16 0 10 12 27 23 24 11 8 23 20 24 10 -14 12 25 26 25 30 36 32 24 27 13 17 -9 -20 -20 -20
4 2 9 8 5 -7 1 -18 -16 -20 -20 -13 -20 -3 12 19 26 33 26 13 23 30 17 2 -2 -6 3 6 12 33 31 37 28 31 32 18 22 19 14 3 8 38 35 31 32 15 -13 -1 2 -5 -20 -20 -20 -20
5 -1 -0 4 -2 -20 1 -4 -20 -20 -20 -20 -20 -20 -20 -15 -17 15 15 31 30 27 11 -15 2 8 -13 11 23 26 31 20 28 25 26 -3 8 17 -2 -11 -16 18 39 32 21 17 16 8 -20 -20 -20 -20 -20 -20
2 3 -0 0 5 -2 6 -9 -20 -20 -20 -20 -20 -14 13 -20 -20 -20 -13 -20 -6 -18 1 2 -20 -1 1 -8 13 13 16 19 13 21 23 -3 6 1 -1 -20 -9 -7 27 17 10 0 8 -13 -20 -20 -20 -20 -20 -20
8 3 1 -4 3 -0 -8 -20 -20 -20 -20 -20 6 16 -20 -20 -20 3 -5 2 -8 7 -20 -20 -20 -20 -18 -14 -20 -7 -6 11 15 11 4 17 18 13 -20 -20 -2 5 9 5 0 -10 -10 -13 -13 1 -19 -17 -20 -20
9 11 1 -19 4 3 -20 -20 -20 -13 -7 -11 -7 -20 -19 -20 -1 14 -20 -20 -11 -7 -20 -20 -20 -20 -20 -20 -20 -20 -17 8 6 4 8 10 8 -6 -20 -20 -0 -16 -16 -17 2 13 7 -2 -16 -15 -19 -16 -20 -20
4 1 -0 0 2 2 -20 -20 -20 -20 -20 -20 -20 -14 -20 -20 -20 -16 -20 -20 -20 -20 -20 -20 -19 -20 -19 -5 -1 1 -1 -20 -20 -9 9 14 2 10 10 14 6 -9 -20 -20 -20 -20 -18 -20 -20 -20 -20 -20 -20 -20
-3 -14 -19 -3 0 -20 -20 -20 -20 -20 -20 -17 -6 -13 -20 8 -20 -20 -20 0 4 -20 -20 -20 -20 -13 10 9 -19 -20 -20 -20 -0 -20 12 -13 -14 8 7 -13 -20 -20 -20 -20 -19 -16 5 7 -8 -20 -20 -20 -20 -16
-20 -20 -20 -2 -20 -20 -20 -20 -20 -20 -20 -20 -20 0 -20 -20 -20 -20 -20 -18 -20 -20 -20 -20 2 -4 -20 -20 -20 -20 -20 -20 -4 6 -20 -20 -20 -18 -12 -7 -1 -17 4 9 9 6 -11 -20 -20 -20 -20 -20 -20 -20
-20 -15 -18 -20 -20 -20 -20 -20 -20 -18 -20 -17 -20 -20 -20 -12 -20 -20 -20 -20 -20 -20 -20 -20 -9 -20 -20 -20 -20 -20 -5 -8 -20 -20 -20 -20 -20 -18 -9 -16 -20 -20 -20 -20 1 -8 -20 -20 -20 -20 -20 -20 -20 -18
-20 19 10 -20 -20 -20 -20 -20 -20 -20 -20 -8 -8 -11 -2 12 -18 -20 14 19 23 8 19 4 2 12 -20 -20 17 -20 6 -18 -18 -18 -20 -20 -20 -20 -20 -20 -20 -20 -20 -20 -20 -20 -20 -20 -20 -20 -15 -13 -14 -16
-6 -9 -20 -20 -20 -19 -20 -20 -20 -20 3 -20 -5 -20 -19 -17 10 -20 -20 -20 -15 8 9 11 -11 -20 -20 10 18 21 -0 -20 -20 -18 -19 -18 -20 -20 -20 -20 -20 -20 -20 -20 -20 -20 -20 -20 -20 -20 -20 -20 -20 -20
-20 -20 -20 -20 -20 -6 -14 -20 -20 1 -17 -14 -20 -9 -20 -20 -17 -20 -20 -20 -20 17 16 -9 -20 15 6 14 -1 -17 -20 -17 -4 3 -9 -17 -19 -9 -20 -20 -20 -20 -20 -20 -20 -20 -20 -20 -20 -20 -20 -20 -20 -19
-20 -20 -20 -20 -20 -2 -20 -15 -20 -20 4 -10 -20 -20 -20 -20 -18 -20 -20 -20 -20 7 -7 -10 -6 10 12 2 -8 -11 -20 -20 -20 -20 -15 -19 -15 -20 -20 -20 -20 -20 -20 -20 -19 -10 -20 -20 -20 -20 -20 -12 -20 -17
-20 -20 -20 -20 -20 -3 -20 -20 -20 -20 -20 -20 -20 -20 -20 -20 8 -16 -20 -20 -20 -20 4 -3 -17 -8 12 18 -0 -13 -17 -18 -20 -20 -20 -20 -17 -20 -20 -20 -20 -20 -20 -10 -20 -20 -20 -20 -20 -20 -19 -20 -17 -20
-9 -20 -20 -20 -20 -20 -20 -20 -20 -20 -15 -20 -20 -20 -20 -20 -17 11 15 -18 -1 4 4 -0 -10 -3 15 17 -11 -15 13 -8 -12 -20 -1 1 -20 -20 -20 -20 -20 -20 -20 -20 -20 -20 -15 -20 -10 -2 -19 -12 3 0
-20 -20 -18 -12 -20 -20 -20 -20 -20 -20 1 -18 -0 -5 -19 -20 -20 -8 9 5 7 0 -6 5 19 23 18 10 -20 -20 -7 -11 13 14 -11 -20 -20 -20 -16 -20 -20 -20 -20 -20 -17 3 -18 -1 -0 2 -13 -4 -5 -17
-20 -20 -20 -17 -20 -20 -20 -20 -20 -4 -20 -20 -15 -17 -2 -20 -12 -20 -18 2 11 3 1 13 11 14 19 15 4 -11 -20 -20 -20 -9 9 12 -16 -4 -14 -20 -20 -20 -20 -20 -20 -18 -18 -18 5 -9 4 -16 -13 -19
-13 -20 -20 -20 -20 -20 -20 -20 -20 -20 -20 -20 -20 -20 -20 -20 -4 -20 -5 5 -18 -20 -20 -20 4 -1 -20 -16 -4 4 11 1 -20 -18 -2 -10 4 -19 -11 -19 -20 -20 -20 -20 -18 -20 -20 -20 -20 5 5 -18 -18 -18
-20 -20 -20 -20 -19 -20 -20 -20 -20 -20 -20 -20 -20 -19 -20 -20 -20 -13 -18 -5 -20 -20 -20 -20 -19 -9 -20 -20 -5 -14 -11 -6 -9 -11 7 10 3 4 -6 -20 -20 -1 -4 -20 -20 -20 -20 -20 -20 -20 -20 -4 2 -8
-20 -20 -20 -20 -20 -20 -20 -20 -20 -20 -20 -20 -20 -20 -20 -20 -20 4 -20 -20 -19 -18 -20 -20 -20 -20 -20 -14 -20 -20 -18 -16 -20 1 9 12 16 16 14 -4 -20 -7 4 -16 -20 -20 -20 -20 -20 -20 -20 -20 -20 -20
-20 -20 -20 -20 -20 -20 -20 -20 -20 -20 -20 -20 -20 -20 -20 -20 -19 -20 -20 -20 -20 -17 -20 -20 -20 -20 -20 -14 -20 -20 -20 -20 -19 -20 -20 -2 12 19 16 13 17 18 15 9 -7 -6 -18 -20 -20 -20 -20 -20 -20 -20
-14 -20 -20 -20 -20 -20 -20 -20 -20 -20 -20 -20 -20 -20 -12 -20 -20 -20 -20 -20 -20 -20 -20 -20 -8 -20 -6 -20 -20 -20 -20 -20 -20 -20 -20 -6 4 11 16 14 7 0 8 6 6 4 3 -10 -20 -20 -20 -20 -19 -20
-18 -20 -20 -20 -20 -20 -20 -20 -20 -20 -20 -20 -20 -20 -19 -12 -20 -20 -20 -20 -3 -20 -20 -20 -20 -20 -20 -20 -20 -20 -20 -20 -20 -20 -20 -20 -3 -10 1 4 3 -9 -20 -9 -0 -5 -9 -8 -17 -20 -20 -20 -20 -20
-20 -20 -20 -20 -18 -14 -20 -20 -20 -20 -20 -20 -20 -20 -14 -20 -20 -20 -20 -20 -20 -20 -20 -20 -20 -20 -20 -20 -20 -20 -20 -20 -20 -20 -20 -20 -20 -20 -20 -20 -18 -20 -20 -20 -20 -20 -8 -4 -6 -9 -18 -18 -20 -20
-13 -6 -20 -20 -20 -15 -20 -20 -20 -20 -20 -20 -20 -20 -20 -20 -20 -20 -20 -20 -20 -20 -20 -15 -20 -20 -20 -20 -20 -20 -20 -20 -20 -20 -20 -20 -20 -20 -20 -20 -20 -20 -20 -20 -20 -20 -20 -20 -20 -20 -20 -20 -20 -20
-20 -20 -20 -20 -20 -20 -20 -20 -18 -20 -20 -20 -3 -20 -20 -20 -20 -20 -20 -20 -4 -20 -20 -20 -20 -20 -20 -20 -20 -20 -20 -20 -20 -20 -20 -20 -20 -20 -20 -20 -20 -20 -20 -20 -20 -20 -20 -20 -20 -20 -20 -20 -20 -20

GFSWCAN_prec_radar_222.txt.gz
Reflectivity
11 -11 15 4 -13 -20 -4 3 -3 -5 3 1 1 5 -16 7 28 26 14 31 28 34 25 -11 -20 -20 -15 9 -12 -20 -4 0 -15 1 1 8 7 4 3 14 13 -1 32 37 29 37 26 17 -13 -20 -20 -20 -20 -20
6 13 18 -18 -10 -17 3 1 -9 -10 3 4 6 4 10 16 17 23 15 6 28 30 33 27 7 18 15 9 11 -12 -18 -20 -20 -14 -0 -20 6 18 6 -19 2 20 4 27 10 14 24 8 -20 -20 -20 -20 8 4
-7 8 13 9 -14 -18 -10 -2 -7 -18 6 4 3 11 18 1 -16 23 -20 -20 -5 27 21 27 37 11 -3 -17 -20 -20 -20 -20 -20 12 21 1 10 -1 16 19 -20 -20 7 24 40 24 -17 5 5 -15 -20 -20 16 14
-2 8 13 -10 6 13 -6 -4 -5 -10 7 7 14 10 14 9 19 16 -20 -11 -20 -20 -11 1 -20 -20 -20 -20 -20 -20 -20 -20 -20 7 16 15 20 -16 -9 7 29 -8 13 6 33 39 28 8 -18 -20 -20 -20 -20 -15
5 3 -2 -5 8 2 16 1 4 0 7 5 11 2 14 -20 18 -19 -20 -20 -20 -20 -16 -11 -20 -20 -20 -20 -20 -20 -20 -20 -20 -12 12 3 -20 -17 20 12 16 1 13 34 15 13 12 2 1 -20 -20 -20 -20 -20
7 7 7 -18 -2 4 12 -1 3 -0 3 4 8 8 32 19 -20 -20 -20 -20 -20 -20 -20 -20 -20 -20 -20 -20 -20 -19 -20 -2 -20 -20 -13 -10 -20 -20 16 21 -20 -20 2 18 23 -17 -6 -20 -16 -20 1 13 -13 7
8 11 10 3 1 7 4 1 -2 -7 -10 -20 -10 9 16 31 10 -16 -20 -20 -17 -15 -20 -20 -20 -20 -20 -17 11 -15 -17 -1 -8 -2 10 6 12 -1 -20 -20 -20 -20 -12 -14 -16 -18 -8 -20 -3 -5 9 17 15 20
11 10 -18 -7 3 4 8 -10 -1 -20 -20 -20 -20 -20 -11 -15 -4 -7 -20 -5 4 8 7 -16 -18 -20 -13 -10 -1 24 5 13 21 21 23 8 -5 8 7 -20 -20 -20 6 19 11 4 7 2 1 -12 25 32 26 32
7 6 9 10 3 -1 0 -9 -20 -20 -20 -20 -20 -20 -20 -14 -20 -20 -15 19 21 24 6 -19 -19 -4 -17 -19 -8 15 17 15 30 23 18 19 -19 10 -20 -20 -6 -20 -18 7 31 19 32 33 34 36 32 25 21 20
9 9 10 9 5 1 7 -19 -20 -20 -20 -20 -20 -20 -20 -20 -20 -20 -20 -20 11 31 24 -18 -20 -20 -19 -20 -1 2 3 14 16 -3 -17 3 -12 -20 -20 -20 -20 -20 -20 -20 -10 28 39 29 25 17 17 13 14 3
-3 8 11 -1 2 -1 -2 -20 -20 -20 -20 -20 -20 -20 -20 -20 -20 -20 -20 -20 -20 -20 -20 -20 -20 -20 -12 -17 2 -8 -15 2 3 5 6 -11 -20 -6 -20 -20 -20 -20 -20 -15 6 12 23 11 8 3 -1 3 -1 2
1 11 2 4 -3 4 -18 -20 -20 -20 -20 -9 -9 -0 -20 -20 -20 -20 -20 -20 -20 -8 -20 -20 -20 -20 -20 -20 -20 -20 3 2 2 -20 -9 -10 -19 7 4 -20 -20 -20 -20 9 14 13 5 4 22 25 14 11 11 8
8 8 5 -2 -4 -17 -20 -20 -20 -20 -20 -18 -1 -18 -20 -20 -20 -20 8 -8 -20 -20 -20 -20 -20 -20 -7 -19 -20 -19 -13 -20 -20 -16 -17 -20 4 20 22 -6 -14 -20 -13 24 27 16 7 9 12 6 6 17 2 -16
10 6 -0 3 8 -20 -20 -20 -20 -20 -20 -20 -20 -20 -20 -20 12 -20 -20 -20 -20 -20 -20 -20 -20 -5 -20 -6 -20 -20 -20 -20 -20 -4 4 -20 -3 18 18 7 -20 -2 1 -10 14 18 19 16 9 11 6 -10 -20 -20
8 -20 -20 -1 -20 -20 -20 -20 -20 -20 -20 -20 -20 -20 -20 -20 -20 -20 -20 -20 -20 -20 -20 -7 -13 -20 -20 -20 -20 -20 -20 -20 -9 9 -20 -20 -20 5 12 3 2 11 8 -3 9 11 14 14 8 3 -17 -20 -20 -20
-20 -20 -20 1 -20 -20 -20 -20 -20 -20 -20 -20 -20 -20 -20 -17 -20 -20 -20 -20 -16 -5 -17 -20 -12 -20 -20 -20 -20 -20 -5 -20 -2 -18 -20 -18 3 -6 3 13 15 13 3 -20 -20 -9 -4 -16 -20 -20 -20 -20 -20 -20
-20 -20 -20 -20 -20 -20 -20 -20 -20 -20 -20 -15 -20 -19 -19 -15 -20 -20 13 -20 -17 -20 -20 -20 -20 -20 -20 -4 8 -20 -20 2 -16 -20 -20 -20 -20 10 13 -12 -1 -16 -20 -20 -20 11 -20 -13 -20 -20 -20 -20 -20 -20
-20 -20 -20 -18 5 -20 -20 -20 -20 -20 -9 -20 -14 -20 -20 -20 10 4 -20 -20 6 -14 -15 11 -17 13 -20 -13 -18 -19 -20 -20 -19 -18 -20 -18 -20 8 15 10 19 16 -4 11 -16 -7 10 -15 -20 -20 -20 -20 -20 -20
-20 -20 -20 -20 11 -20 -20 -20 -20 -20 -20 -20 -20 -20 -20 -20 -20 -20 -20 -20 -20 -6 20 13 -18 -20 2 12 5 -20 -20 -20 -12 5 6 11 -13 -20 -2 -18 -20 -20 -20 -5 9 8 -20 -20 -20 -20 -20 -20 -20 -20
-20 -20 -20 -20 -16 -20 -20 -20 -20 -20 -20 -20 -20 -20 -20 -20 -20 -20 -20 -20 -20 -19 5 7 -20 -18 -8 11 19 -18 -20 -20 -6 -19 -17 -10 -16 -20 -20 -20 -20 -20 -20 -20 -20 -20 -20 -20 -20 -20 -20 -20 -20 -20
-20 -20 -20 -20 -20 -20 -20 -20 -20 -20 -20 -20 -20 -20 -20 -20 -20 15 -20 -20 -20 -20 -8 9 10 -10 1 10 12 -11 -20 -20 -20 -20 -20 -20 -20 -20 -20 -20 -20 -20 -20 -20 -20 -20 -20 -20 -20 -20 -20 -20 -20 -20
-13 -20 -20 -20 -20 -20 -20 -20 -20 -20 -20 -20 -20 -20 -20 -20 -20 -19 -20 -20 -16 -4 -6 9 7 15 5 8 15 8 -9 -20 -20 -20 -2 1 -20 -20 -20 -20 -20 -20 -20 -20 -20 -20 -20 -20 -20 -20 -20 -20 -12 -20
-20 -20 -20 -20 -20 -20 -20 -20 -20 -20 -20 -20 -20 -20 -20 -20 -13 -20 -15 -6 -12 -13 -14 -13 5 17 16 23 23 17 4 -14 -18 -19 -20 -20 -20 -20 -20 -20 -20 -20 -20 -20 -20 -20 -20 -20 -6 -9 -19 -12 -20 -20
-20 -20 -20 -20 -20 -20 -20 -20 -20 -20 -20 -20 -20 -15 -20 -20 -15 -20 -18 -20 -16 -20 -18 -14 -20 -10 3 14 19 20 19 20 17 14 -10 -19 -20 -20 -20 -20 -20 -20 -20 -20 -20 -20 -20 -20 -20 -13 -20 -20 -20 -20
-20 -20 -20 -20 -20 -20 -20 -20 -20 -20 -20 -20 -20 -20 -20 -20 -20 -20 -20 -20 -20 -20 -20 -20 -8 -7 -16 10 17 17 12 8 9 12 4 -1 -15 -4 -15 -20 -20 -20 -20 -20 -20 -20 -20 -20 -20 -20 -20 -20 -20 -20
-20 -20 -20 -20 -20 -20 -20 -20 -20 -20 -20 -20 -20 -20 -20 -20 -20 -20 -20 -20 -20 -20 -20 -20 -20 -20 -20 -20 -17 4 8 11 9 9 10 5 3 -8 -9 -20 -19 -16 -17 -20 -20 -20 -20 -20 -20 -20 -19 -2 2 -5
-20 -20 -20 -20 -20 -20 -20 -20 -20 -20 -20 -20 -20 -20 -20 -20 -20 -20 -20 -20 -20 -20 -20 -20 -20 -20 -20 -20 -20 -20 -20 -19 -11 -2 3 4 5 12 13 9 1 -9 -19 -20 -20 -20 -20 -20 -20 -20 -20 -20 -20 -2
-20 -20 -20 -20 -20 -20 -20 -20 -20 -20 -20 -20 -20 -20 -20 -20 -20 -20 -20 -20 -20 -20 -20 -20 -20 -20 -20 -20 -20 -20 -20 -20 -20 -20 -17 1 9 15 17 16 13 12 13 14 11 10 3 -20 -20 -20 -20 -20 -20 -17
-20 -20 -20 -20 -20 -20 -20 -20 -20 -20 -20 -20 -20 -20 -20 -20 -20 -20 -20 -20 -20 -20 -20 -20 -20 -20 -20 -20 -20 -20 -20 -20 -20 -20 -20 -20 -20 1 14 17 15 14 15 14 14 12 6 -6 -20 -20 -20 -20 -20 -20
-20 -20 -20 -20 -20 -20 -20 -20 -20 -20 -20 -20 -20 -20 -20 -20 -20 -20 -20 -20 -20 -20 -20 -20 -20 -20 -20 -20 -20 -20 -20 -20 -20 -20 -20 -20 -6 -1 -4 8 13 13 10 9 5 3 6 8 9 6 -6 -18 -18 -20
-20 -20 -20 -20 -20 -20 -20 -20 -20 -20 -20 -20 -20 -20 -20 -20 -20 -20 -20 -20 -20 -20 -20 -20 -20 -20 -20 -20 -20 -20 -20 -20 -20 -20 -20 -20 -20 -20 -20 -20 -18 -2 6 7 1 -8 -20 -19 -16 -13 -6 -10 -20 -20
-20 -20 -20 -20 -20 -20 -20 -20 -20 -20 -20 -20 -20 -20 -20 -20 -20 -20 -20 -20 -20 -20 -20 -20 -20 -20 -20 -20 -20 -20 -20 -20 -20 -20 -20 -20 -20 -20 -20 -20 -20 -20 -20 -20 -20 -20 -20 -20 -20 -20 -20 -20 -20 -20
-20 -20 -20 -20 -20 -20 -20 -20 -20 -20 -20 -20 -20 -20 -20 -20 -20 -20 -20 -20 -20 -20 -20 -20 -20 -20 -20 -20 -20 -20 -20 -20 -20 -20 -20 -20 -20 -20 -20 -20 -20 -20 -20 -20 -20 -20 -20 -20 -20 -20 -20 -20 -20 -20